DW3349 Weather Reports


Display with metric or nautical units.
time (UTC)temp
F
wind
direction
speed
MPH
gust
MPH
rain 1hr
in
rain 24hr
in
rain mn
in
humidity
%
barometer
mb
20260507095402 56 3 6.0 11.0 0.00 0.00 0.00 68 1016.1
20260507094901 56 6 4.0 11.0 0.00 0.00 0.00 68 1016.1
20260507094631 56 348 3.0 11.0 0.00 0.00 0.00 71 1016.0
20260507094142 56 21 3.0 9.0 0.00 0.00 0.00 70 1015.9
20260507093400 56 47 4.0 10.0 0.00 0.00 0.00 72 1015.9
20260507093135 55 25 4.0 11.0 0.00 0.00 0.00 72 1015.9
20260507093129 54 20 5.0 11.0 0.00 0.00 0.00 73 1015.9
20260507091900 54 358 3.0 9.0 0.00 0.00 0.00 76 1015.8
20260507091400 53 0 5.0 9.0 0.00 0.00 0.00 79 1015.8
20260507090900 52 1 3.0 9.0 0.00 0.00 0.00 79 1015.8
20260507090400 53 0 5.0 9.0 0.00 0.00 0.00 79 1015.8
20260507085900 52 3 4.0 9.0 0.00 0.00 0.00 80 1015.7
20260507085400 52 351 6.0 9.0 0.00 0.00 0.00 81 1015.6
20260507084901 52 14 2.0 9.0 0.00 0.00 0.00 81 1015.7
20260507084400 51 23 3.0 10.0 0.00 0.00 0.00 83 1015.7
20260507083858 51 21 7.0 11.0 0.00 0.00 0.00 84 1015.7
20260507083400 51 347 2.0 11.0 0.00 0.00 0.00 85 1015.6
20260507082857 50 0 3.0 6.0 0.00 0.00 0.00 85 1015.6
20260507082358 50 27 3.0 6.0 0.00 0.00 0.00 86 1015.6
20260507081857 49 30 4.0 7.0 0.00 0.00 0.00 87 1015.6
20260507081356 49 49 2.0 7.0 0.00 0.00 0.00 88 1015.7
20260507081133 49 56 0.0 6.0 0.00 0.00 0.00 89 1015.6
20260507080357 48 61 4.0 7.0 0.00 0.00 0.00 89 1015.6
20260507075857 48 44 2.0 7.0 0.00 0.00 0.00 89 1015.6
20260507075350 47 65 3.0 6.0 0.00 0.00 0.00 90 1015.5
20260507075122 47 69 2.0 6.0 0.00 0.00 0.00 91 1015.5
20260507074619 47 69 3.0 6.0 0.00 0.00 0.00 91 1015.6
20260507073851 47 72 1.0 6.0 0.00 0.00 0.00 91 1015.5
20260507073350 47 68 2.0 6.0 0.00 0.00 0.00 91 1015.4
20260507072850 47 73 2.0 7.0 0.00 0.00 0.00 92 1015.5
20260507072614 47 71 4.0 9.0 0.00 0.00 0.00 92 1015.4
20260507071850 47 38 4.0 9.0 0.00 0.00 0.00 92 1015.4
20260507071615 47 25 3.0 5.0 0.00 0.00 0.00 92 1015.4
20260507070844 46 16 2.0 6.0 0.00 0.00 0.00 92 1015.5
20260507070345 46 14 2.0 6.0 0.00 0.00 0.00 92 1015.4
20260507070121 46 14 3.0 6.0 0.00 0.00 0.00 92 1015.4
20260507065343 46 37 3.0 6.0 0.00 0.00 0.00 92 1015.3
20260507064844 46 23 4.0 6.0 0.00 0.00 0.00 92 1015.4
20260507064344 45 59 2.0 5.0 0.00 0.00 0.00 92 1015.4
20260507063850 45 61 2.0 5.0 0.00 0.00 0.00 92 1015.4
20260507063341 45 58 3.0 5.0 0.00 0.00 0.00 91 1015.4
20260507062841 44 47 2.0 6.0 0.00 0.00 0.00 92 1015.3
20260507062341 44 47 1.0 6.0 0.00 0.00 0.00 91 1015.4
20260507061841 44 56 2.0 6.0 0.00 0.00 0.00 91 1015.4
20260507061340 43 62 2.0 5.0 0.00 0.00 0.00 91 1015.3
20260507060837 43 58 1.0 4.0 0.00 0.00 0.00 91 1015.3
20260507060337 43 52 2.0 4.0 0.00 0.00 0.00 91 1015.3
20260507060125 42 56 1.0 4.0 0.00 0.00 0.00 90 1015.3
20260507060120 42 61 1.0 4.0 0.00 0.00 0.00 90 1015.2
20260507054838 42 56 1.0 4.0 0.00 0.00 0.00 90 1015.2
20260507054337 42 52 1.0 3.0 0.00 0.00 0.00 90 1015.2
20260507053837 42 54 0.0 3.0 0.00 0.00 0.00 90 1015.1
20260507053337 41 52 1.0 3.0 0.00 0.00 0.00 90 1015.1
20260507052835 41 52 0.0 3.0 0.00 0.00 0.00 89 1015.1
20260507052336 41 52 1.0 3.0 0.00 0.00 0.00 89 1015.0
20260507051837 41 52 0.0 3.0 0.00 0.00 0.00 89 1015.0
20260507051342 41 52 0.0 3.0 0.00 0.00 0.00 89 1014.9
20260507051335 41 52 0.0 3.0 0.00 0.00 0.00 89 1015.0
20260507050333 41 52 1.0 2.0 0.00 0.00 0.00 89 1014.9
20260507045835 41 52 1.0 2.0 0.00 0.00 0.00 89 1014.7
20260507045335 41 51 1.0 2.0 0.00 0.00 0.00 89 1014.7
20260507044832 41 52 1.0 2.0 0.00 0.00 0.00 89 1014.6
20260507044332 41 52 0.0 1.0 0.00 0.00 0.00 89 1014.5
20260507043831 41 52 0.0 1.0 0.00 0.00 0.00 89 1014.6
20260507043334 41 51 0.0 2.0 0.00 0.00 0.00 89 1014.5
20260507042831 41 52 0.0 2.0 0.00 0.00 0.00 89 1014.5
20260507042331 41 52 0.0 2.0 0.00 0.00 0.00 89 1014.5
20260507041831 41 52 1.0 2.0 0.00 0.00 0.00 89 1014.4
20260507041333 41 52 0.0 2.0 0.00 0.00 0.00 89 1014.4
20260507040831 42 51 0.0 2.0 0.00 0.00 0.00 89 1014.3
20260507040333 42 52 0.0 2.0 0.00 0.00 0.00 89 1014.3
20260507040119 42 52 0.0 2.0 0.00 0.00 0.00 89 1014.3
20260507035332 42 52 1.0 2.0 0.00 0.00 0.00 89 1014.2
20260507034832 42 52 1.0 2.0 0.00 0.00 0.00 89 1014.2
20260507034332 42 52 0.0 3.0 0.00 0.00 0.00 88 1014.2
20260507033831 42 52 0.0 3.0 0.00 0.00 0.00 88 1014.2
20260507033331 42 52 1.0 2.0 0.00 0.00 0.00 88 1014.2
20260507032833 42 52 1.0 4.0 0.00 0.00 0.00 88 1014.1
20260507032333 42 52 2.0 4.0 0.00 0.00 0.00 88 1014.2
20260507031831 42 52 2.0 3.0 0.00 0.00 0.00 88 1014.1
20260507031333 42 52 1.0 2.0 0.00 0.00 0.00 88 1014.1
20260507030832 43 52 1.0 3.0 0.00 0.00 0.00 88 1014.1
20260507030332 43 52 1.0 3.0 0.00 0.00 0.00 88 1014.0
20260507025832 43 52 0.0 3.0 0.00 0.00 0.00 88 1014.0
20260507025333 43 52 0.0 2.0 0.00 0.00 0.00 88 1014.0
20260507025105 43 52 0.0 2.0 0.00 0.00 0.00 88 1014.1
20260507024331 43 52 0.0 2.0 0.00 0.00 0.00 88 1013.9
20260507024107 43 52 0.0 2.0 0.00 0.00 0.00 88 1013.9
20260507023331 44 54 0.0 2.0 0.00 0.00 0.00 88 1013.9
20260507022832 44 52 1.0 3.0 0.00 0.00 0.00 88 1013.9
20260507022333 44 52 1.0 3.0 0.00 0.00 0.00 87 1013.9
20260507021833 44 52 1.0 3.0 0.00 0.00 0.00 87 1013.8
20260507021333 44 52 1.0 4.0 0.00 0.00 0.00 87 1013.8
20260507020831 44 51 1.0 4.0 0.00 0.00 0.00 87 1013.7
20260507020331 44 51 1.0 4.0 0.00 0.00 0.00 87 1013.7
20260507015832 44 48 1.0 5.0 0.00 0.00 0.00 87 1013.6
20260507015331 44 55 1.0 5.0 0.00 0.00 0.00 87 1013.6
20260507014831 44 51 2.0 5.0 0.00 0.00 0.00 87 1013.6
20260507014331 44 47 2.0 6.0 0.00 0.00 0.00 87 1013.6
20260507014100 44 48 2.0 6.0 0.00 0.00 0.00 87 1013.6
20260507013331 45 44 2.0 5.0 0.00 0.00 0.00 87 1013.6
20260507012832 45 42 2.0 4.0 0.00 0.00 0.00 87 1013.6
20260507012333 45 42 2.0 4.0 0.00 0.00 0.00 87 1013.6
20260507011832 45 42 1.0 4.0 0.00 0.00 0.00 86 1013.5
20260507011334 45 45 1.0 4.0 0.00 0.00 0.00 86 1013.5
20260507010831 45 45 2.0 6.0 0.00 0.00 0.00 86 1013.5
20260507010606 46 44 2.0 6.0 0.00 0.00 0.00 86 1013.5
20260507005831 46 41 2.0 4.0 0.00 0.00 0.00 86 1013.6
20260507005332 46 44 2.0 4.0 0.00 0.00 0.00 86 1013.5
20260507004833 46 45 1.0 5.0 0.00 0.00 0.00 86 1013.4
20260507004332 46 47 1.0 5.0 0.00 0.00 0.00 86 1013.5
20260507003832 47 47 2.0 3.0 0.00 0.00 0.00 86 1013.5
20260507003334 47 47 1.0 4.0 0.00 0.00 0.00 85 1013.5
20260507003104 47 47 1.0 4.0 0.00 0.00 0.00 85 1013.5
20260507002332 47 51 2.0 5.0 0.00 0.00 0.00 84 1013.5
20260507001833 47 52 0.0 5.0 0.00 0.00 0.00 84 1013.4
20260507001606 47 48 2.0 6.0 0.00 0.00 0.00 83 1013.3
20260507000832 47 47 2.0 6.0 0.00 0.00 0.00 82 1013.3
20260507000332 47 45 2.0 5.0 0.00 0.00 0.00 81 1013.3
20260506235834 47 34 2.0 5.0 0.00 0.00 0.00 81 1013.4
20260506235331 47 3 2.0 9.0 0.00 0.00 0.00 80 1013.3
20260506235106 47 0 3.0 9.0 0.00 0.00 0.00 80 1013.3
20260506234331 47 0 2.0 4.0 0.00 0.00 0.00 80 1013.3
20260506233830 47 45 2.0 5.0 0.00 0.00 0.00 80 1013.3
20260506233331 48 32 2.0 5.0 0.00 0.00 0.00 80 1013.3
20260506232831 48 28 3.0 5.0 0.00 0.00 0.00 79 1013.2
20260506232331 48 58 3.0 5.0 0.00 0.00 0.00 79 1013.2
20260506231831 48 51 1.0 5.0 0.00 0.00 0.00 79 1013.2
20260506231331 48 38 1.0 4.0 0.00 0.00 0.00 79 1013.2
20260506230833 48 42 2.0 4.0 0.00 0.00 0.00 78 1013.1
20260506230332 48 35 2.0 4.0 0.00 0.00 0.00 78 1013.1
20260506230114 48 48 2.0 4.0 0.00 0.00 0.00 78 1013.1
20260506225331 49 38 2.0 10.0 0.00 0.00 0.00 78 1013.1
20260506224832 49 63 3.0 10.0 0.00 0.00 0.00 78 1013.1
20260506224332 49 54 3.0 7.0 0.00 0.00 0.00 77 1013.2
20260506223831 49 59 4.0 7.0 0.00 0.00 0.00 77 1013.1
20260506223332 49 37 2.0 9.0 0.00 0.00 0.00 77 1012.9
20260506222832 49 55 3.0 9.0 0.00 0.00 0.00 77 1013.0
20260506222332 49 61 2.0 9.0 0.00 0.00 0.00 77 1013.0
20260506221832 49 62 4.0 9.0 0.00 0.00 0.00 76 1012.9
20260506221332 49 44 3.0 9.0 0.00 0.00 0.00 76 1012.9
20260506220832 49 56 3.0 7.0 0.00 0.00 0.00 76 1012.8
20260506220332 49 45 3.0 9.0 0.00 0.00 0.00 75 1012.8
20260506215831 50 61 3.0 9.0 0.00 0.00 0.00 75 1012.8
20260506215335 50 87 3.0 9.0 0.00 0.00 0.00 74 1012.8
20260506214834 50 41 3.0 9.0 0.00 0.00 0.00 74 1012.7
20260506214331 50 51 2.0 4.0 0.00 0.00 0.00 74 1012.7
20260506213831 50 20 1.0 6.0 0.00 0.00 0.00 74 1012.7
20260506213332 50 58 2.0 6.0 0.00 0.00 0.00 74 1012.7
20260506213103 51 44 3.0 6.0 0.00 0.00 0.00 73 1012.6
20260506212602 51 30 2.0 6.0 0.00 0.00 0.00 73 1012.6
20260506211831 51 27 2.0 7.0 0.00 0.00 0.00 73 1012.6
20260506211613 51 99 2.0 7.0 0.00 0.00 0.00 72 1012.5
20260506210831 51 78 4.0 9.0 0.00 0.00 0.00 72 1012.4
20260506210331 51 90 3.0 9.0 0.00 0.00 0.00 71 1012.4
20260506205831 51 83 2.0 9.0 0.00 0.00 0.00 71 1012.4
20260506205331 52 71 4.0 9.0 0.00 0.00 0.00 71 1012.4
20260506204827 52 104 4.0 9.0 0.00 0.00 0.00 70 1012.4
20260506204326 52 34 3.0 5.0 0.00 0.00 0.00 70 1012.4
20260506203827 52 51 3.0 5.0 0.00 0.00 0.00 70 1012.3
20260506203327 53 55 2.0 6.0 0.00 0.00 0.00 69 1012.2
20260506202829 53 35 1.0 7.0 0.00 0.00 0.00 69 1012.3
20260506202325 53 54 3.0 7.0 0.00 0.00 0.00 69 1012.2
20260506201824 53 75 2.0 6.0 0.00 0.00 0.00 69 1012.1
20260506201323 53 58 2.0 5.0 0.00 0.00 0.00 69 1012.1
20260506200825 53 90 3.0 7.0 0.00 0.00 0.00 69 1012.0
20260506200322 54 44 3.0 7.0 0.00 0.00 0.00 69 1011.9
20260506195822 54 86 3.0 12.0 0.00 0.00 0.00 69 1011.8
20260506195322 54 23 4.0 12.0 0.00 0.00 0.00 69 1011.9
20260506194821 54 106 3.0 10.0 0.00 0.00 0.00 69 1011.8
20260506194320 54 76 4.0 10.0 0.00 0.00 0.00 69 1011.7
20260506193820 54 18 3.0 10.0 0.00 0.00 0.00 70 1011.7
20260506193319 54 48 3.0 9.0 0.00 0.00 0.00 70 1011.7
20260506192823 54 90 3.0 6.0 0.00 0.00 0.00 70 1011.6
20260506192319 54 68 3.0 7.0 0.00 0.00 0.00 70 1011.5
20260506191817 54 59 4.0 11.0 0.00 0.00 0.00 71 1011.4
20260506191551 54 59 6.0 11.0 0.00 0.00 0.00 71 1011.3
20260506190817 54 58 3.0 11.0 0.00 0.00 0.00 71 1011.3
20260506190316 54 96 3.0 11.0 0.00 0.00 0.00 72 1011.3
20260506185813 54 35 3.0 9.0 0.00 0.00 0.00 71 1011.3
20260506185313 54 68 2.0 9.0 0.00 0.00 0.00 71 1011.1
20260506184812 54 62 4.0 11.0 0.00 0.00 0.00 71 1011.0
20260506184313 54 354 4.0 11.0 0.00 0.00 0.00 71 1011.0
20260506183813 54 106 3.0 7.0 0.00 0.00 0.00 71 1010.9
20260506183316 54 45 3.0 6.0 0.00 0.00 0.00 71 1010.9
20260506183312 54 52 2.0 10.0 0.00 0.00 0.00 72 1010.8
20260506182313 54 34 5.0 10.0 0.00 0.00 0.00 73 1010.7
20260506181812 54 37 5.0 10.0 0.00 0.00 0.00 74 1010.7
20260506181311 55 49 2.0 5.0 0.00 0.00 0.00 75 1010.6
20260506180811 55 44 2.0 4.0 0.00 0.00 0.00 75 1010.6
20260506180314 55 44 2.0 6.0 0.00 0.00 0.00 75 1010.5
20260506175812 55 55 2.0 7.0 0.00 0.00 0.00 75 1010.5
20260506175312 55 48 2.0 13.0 0.00 0.00 0.00 75 1010.4
20260506174810 55 41 4.0 13.0 0.00 0.00 0.00 75 1010.3
20260506174312 55 30 3.0 14.0 0.00 0.00 0.00 75 1010.3
20260506173810 55 51 6.0 14.0 0.00 0.00 0.00 75 1010.2
20260506173309 55 44 6.0 13.0 0.00 0.00 0.00 75 1010.1
20260506172808 55 80 7.0 13.0 0.00 0.00 0.00 75 1010.2
20260506172309 55 31 4.0 10.0 0.00 0.00 0.00 76 1010.1
20260506171811 55 0 4.0 10.0 0.00 0.00 0.00 76 1010.1
20260506171542 55 17 5.0 10.0 0.00 0.00 0.00 76 1010.0
20260506170803 55 51 5.0 12.0 0.00 0.00 0.00 76 1010.0
20260506170304 55 0 5.0 14.0 0.00 0.00 0.00 75 1010.0
20260506165803 55 329 5.0 14.0 0.00 0.00 0.00 75 1010.0
20260506165305 55 39 5.0 13.0 0.00 0.00 0.00 75 1010.0
20260506164803 55 347 6.0 12.0 0.00 0.00 0.00 75 1009.9
20260506164300 55 55 4.0 17.0 0.00 0.00 0.00 75 1010.0
20260506163759 55 49 7.0 17.0 0.00 0.00 0.00 75 1010.0
20260506163301 55 25 6.0 13.0 0.00 0.00 0.00 75 1009.9
20260506162758 55 54 4.0 13.0 0.00 0.00 0.00 75 1009.8
20260506162259 55 326 5.0 12.0 0.00 0.00 0.00 75 1009.9
20260506161758 55 52 5.0 16.0 0.00 0.00 0.00 75 1009.9
20260506161259 55 41 4.0 16.0 0.00 0.00 0.00 74 1009.9
20260506160758 55 32 7.0 18.0 0.00 0.00 0.00 74 1009.8
20260506160259 55 23 7.0 18.0 0.00 0.00 0.00 74 1009.9
20260506160045 55 16 7.0 19.0 0.00 0.00 0.00 74 1009.9
20260506155259 55 300 8.0 19.0 0.00 0.00 0.00 73 1009.8
20260506154756 56 344 9.0 15.0 0.00 0.00 0.00 73 1009.8
20260506154255 56 0 5.0 15.0 0.00 0.00 0.00 73 1009.9
20260506153753 56 20 7.0 15.0 0.00 0.00 0.00 73 1009.8
20260506153252 56 4 7.0 17.0 0.00 0.00 0.00 73 1009.9
20260506152755 56 0 9.0 23.0 0.00 0.00 0.00 72 1009.8
20260506152252 57 4 9.0 23.0 0.00 0.00 0.00 72 1009.8
20260506151759 57 141 8.0 22.0 0.00 0.00 0.00 71 1009.7
20260506151755 57 17 9.0 22.0 0.00 0.00 0.00 71 1009.8
20260506150753 57 30 9.0 21.0 0.00 0.00 0.00 72 1009.6
20260506150524 57 23 11.0 21.0 0.00 0.00 0.00 71 1009.7
20260506145753 57 62 7.0 19.0 0.00 0.00 0.00 71 1009.8
20260506145252 57 331 9.0 21.0 0.00 0.00 0.00 71 1009.7
20260506144751 57 3 12.0 21.0 0.00 0.00 0.00 71 1009.7
20260506144252 57 45 8.0 22.0 0.00 0.00 0.00 71 1009.5
20260506143750 57 286 10.0 22.0 0.00 0.00 0.00 71 1009.7
20260506143248 57 323 10.0 20.0 0.00 0.00 0.00 71 1009.6
20260506143018 57 27 8.0 17.0 0.00 0.00 0.00 71 1009.7
20260506142248 57 55 6.0 18.0 0.00 0.00 0.00 71 1009.6
20260506141746 57 51 7.0 18.0 0.00 0.00 0.00 72 1009.7
20260506141247 57 338 8.0 18.0 0.00 0.00 0.00 72 1009.6
20260506141016 57 0 8.0 15.0 0.00 0.00 0.00 73 1009.7
20260506140245 57 135 5.0 16.0 0.00 0.00 0.00 73 1009.6
20260506135745 58 35 9.0 18.0 0.00 0.00 0.00 73 1009.6
20260506135243 58 0 6.0 19.0 0.00 0.00 0.00 73 1009.6
20260506134743 58 0 11.0 19.0 0.00 0.00 0.00 73 1009.6
20260506134241 58 10 6.0 18.0 0.00 0.00 0.00 73 1009.7
20260506133743 58 1 8.0 22.0 0.00 0.00 0.00 72 1009.6
20260506133243 58 330 9.0 22.0 0.00 0.00 0.00 73 1009.6
20260506132742 58 48 9.0 17.0 0.00 0.00 0.00 74 1009.5
20260506132239 58 18 9.0 20.0 0.00 0.00 0.00 75 1009.5
20260506131739 58 0 9.0 20.0 0.00 0.00 0.00 74 1009.5
20260506131238 57 4 6.0 18.0 0.00 0.00 0.00 76 1009.5
20260506131005 57 28 7.0 18.0 0.00 0.00 0.00 77 1009.6
20260506130240 57 30 3.0 14.0 0.00 0.00 0.00 77 1009.5
20260506125739 56 18 6.0 14.0 0.00 0.00 0.00 77 1009.5
20260506125242 56 34 8.0 18.0 0.00 0.00 0.00 76 1009.5
20260506124746 56 56 5.0 17.0 0.00 0.00 0.00 76 1009.5
20260506124741 56 337 9.0 18.0 0.00 0.00 0.00 76 1009.5
20260506123737 56 334 8.0 21.0 0.00 0.00 0.00 75 1009.5
20260506123238 56 44 9.0 21.0 0.00 0.00 0.00 74 1009.4
20260506122739 57 24 9.0 22.0 0.00 0.00 0.00 74 1009.4
20260506122238 57 20 8.0 22.0 0.00 0.00 0.00 74 1009.4
20260506121739 57 13 6.0 19.0 0.00 0.00 0.00 75 1009.3
20260506121240 57 23 8.0 19.0 0.00 0.00 0.00 74 1009.3
20260506120736 56 0 7.0 15.0 0.00 0.00 0.00 75 1009.3
20260506120237 56 0 9.0 16.0 0.00 0.00 0.00 75 1009.3
20260506115739 56 357 5.0 16.0 0.00 0.00 0.00 75 1009.2
20260506115237 56 34 9.0 17.0 0.00 0.00 0.00 74 1009.1
20260506114738 56 21 6.0 17.0 0.00 0.00 0.00 74 1009.2
20260506114235 56 0 8.0 17.0 0.00 0.00 0.00 74 1009.3
20260506113736 56 18 6.0 16.0 0.00 0.00 0.00 74 1009.3
20260506113235 56 35 6.0 14.0 0.00 0.00 0.00 74 1009.3
20260506112800 56 0 9.0 16.0 0.00 0.00 0.00 75 1009.3
20260506112751 56 27 4.0 16.0 0.00 0.00 0.00 74 1009.2
20260506111737 56 94 7.0 15.0 0.00 0.00 0.00 75 1009.2
20260506111235 56 0 7.0 15.0 0.00 0.00 0.00 75 1009.3
20260506110745 56 47 5.0 15.0 0.00 0.00 0.00 75 1009.3
20260506110738 56 54 7.0 15.0 0.00 0.00 0.00 76 1009.3
20260506105733 57 344 10.0 18.0 0.00 0.00 0.00 76 1009.3
20260506105234 57 8 8.0 18.0 0.00 0.00 0.00 76 1009.3
20260506104734 57 17 7.0 14.0 0.00 0.00 0.00 76 1009.2
20260506104234 57 353 6.0 16.0 0.00 0.00 0.00 76 1009.3
20260506103735 57 55 7.0 17.0 0.00 0.00 0.00 75 1009.3
20260506103236 57 80 6.0 17.0 0.00 0.00 0.00 75 1009.4
20260506102735 57 44 8.0 20.0 0.00 0.00 0.00 76 1009.3
20260506102235 57 354 9.0 20.0 0.00 0.00 0.00 76 1009.2
20260506101735 57 0 8.0 19.0 0.00 0.00 0.00 75 1009.2
20260506101234 57 14 11.0 19.0 0.00 0.00 0.00 75 1009.2
20260506100731 57 83 8.0 18.0 0.00 0.00 0.00 75 1009.1
20260506100232 57 55 11.0 17.0 0.00 0.00 0.00 76 1009.1
20260506095734 57 24 4.0 17.0 0.00 0.00 0.00 76 1009.2